This is the latest recevied weather packets stored in our database for station/object W4MLN-3. If no packets are shown the sender has not sent any weather packets the latest 10 day(s).
| Time | Temp. | Humidity | Pressure | Rain* | Wind** | Luminosity | Snow |
|---|---|---|---|---|---|---|---|
| 1787667624 | 20.56° C | 69% | 1021.8 hPa | 0 mm | - | - | - |
| 1787667303 | 20° C | 72% | 1021.9 hPa | 0 mm | - | - | - |
| 1787667003 | 20° C | 71% | 1021.9 hPa | 0 mm | - | - | - |
| 1787666703 | 19.44° C | 71% | 1021.8 hPa | 0 mm | - | - | - |
| 1787666405 | 18.89° C | 73% | 1021.9 hPa | 0 mm | - | - | - |
| 1787666103 | 18.89° C | 73% | 1021.9 hPa | 0 mm | - | - | - |
| 1787665803 | 18.33° C | 75% | 1022 hPa | 0 mm | - | - | - |
| 1787665503 | 18.33° C | 74% | 1022 hPa | 0 mm | - | - | - |
| 1787665204 | 17.78° C | 74% | 1022 hPa | 0 mm | - | - | - |
| 1787664903 | 17.78° C | 76% | 1022.1 hPa | 0 mm | - | - | - |
| 1787664624 | 17.78° C | 78% | 1022.2 hPa | 0 mm | - | - | - |
| 1787664303 | 17.22° C | 80% | 1022.3 hPa | 0 mm | - | - | - |
| 1787664003 | 16.67° C | 82% | 1022.3 hPa | 0 mm | - | - | - |
| 1787663703 | 16.11° C | 85% | 1022.3 hPa | 0 mm | - | - | - |
| 1787663403 | 15.56° C | 85% | 1022.3 hPa | 0 mm | - | - | - |
| 1787663103 | 15° C | 88% | 1022.2 hPa | 0 mm | - | - | - |
| 1787662803 | 15° C | 90% | 1022.2 hPa | 0 mm | - | - | - |
| 1787662503 | 14.44° C | 91% | 1022 hPa | 0 mm | - | - | - |
| 1787662203 | 14.44° C | 94% | 1022 hPa | 0 mm | - | - | - |
| 1787661903 | 13.89° C | 95% | 1021.9 hPa | 0 mm | - | - | - |
| 1787661603 | 13.33° C | 96% | 1021.9 hPa | 0 mm | - | - | - |
| 1787661303 | 13.33° C | 96% | 1021.8 hPa | 0 mm | - | - | - |
| 1787661024 | 12.78° C | 96% | 1021.7 hPa | 0 mm | - | - | - |
| 1787660703 | 12.22° C | 96% | 1021.6 hPa | 0 mm | - | - | - |
| 1787660403 | 12.22° C | 96% | 1021.6 hPa | 0 mm | - | - | - |
* Rain latest hour (hover to see other rain measurements)
** Current wind speed in m/s (hover to see current wind gust speed)